Oak Ridge, TN

4:00 AM EDT on October 21, 2017 (GMT -0400)
Oak Ridge

Weather History for KOQT - May, 2013

Change the Weather History Date:

Monday, May 27, 2013

  Actual Average (KTYS) Record (KTYS)
Temperature  
Mean Temperature 70 °F -  
Max Temperature 84 °F 80 °F 94 °F (1941)
Min Temperature 55 °F 58 °F 39 °F (1961)
Cooling Degree Days 4    
Growing Degree Days 20 (Base 50)    
Moisture  
Dew Point 55 °F    
Average Humidity 65    
Maximum Humidity 96    
Minimum Humidity 34    
Precipitation  
Precipitation 0.00 in - - ()
Sea Level Pressure  
Sea Level Pressure 30.16 in    
Wind  
Wind Speed 2 mph (SW)    
Max Wind Speed 9 mph    
Max Gust Speed 17 mph    
Visibility 10 miles    
Events      
Averages and records for this station are not official NWS values.
T = Trace of Precipitation, MM = Missing Value Source: NWS Daily Summary

Daily Weather History Graph

Daily Weather History Graph

Search for Another Location

Airport or City:

Trip Planner

Search our weather history database for the weather conditions in past years. The results will help you decide how hot, cold, wet, or windy it might be!

Date:

Astronomy

May. 27, 2013 Rise Set
Actual Time 6:23 AM EDT 8:45 PM EDT
Civil Twilight 5:53 AM EDT 9:14 PM EDT
Nautical Twilight 5:17 AM EDT 9:50 PM EDT
Astronomical Twilight 4:38 AM EDT 10:30 PM EDT
Moon 11:25 PM EDT (5/27) 8:58 AM EDT (5/27)
Length of Visible Light 15h 20m
Length of Day
14h 21m
Waning Gibbous, 91% of the Moon is Illuminated
May 27
Waning Gibbous
May 31
Last Quarter
Jun 8
New
Jun 16
First Quarter
Jun 23
Full

Hourly Weather History & Observations

Time (EDT) Temp. Heat Index Dew Point Humidity Pressure Visibility Wind Dir Wind Speed Gust Speed Precip Events Conditions
12:53 AM 60.1 °F - 55.0 °F 83% 30.20 in 10.0 mi Calm Calm - N/A   Clear
1:53 AM 57.9 °F - 55.0 °F 90% 30.19 in 10.0 mi Calm Calm - N/A   Clear
2:53 AM 57.0 °F - 55.0 °F 93% 30.18 in 10.0 mi Calm Calm - N/A   Clear
3:53 AM 55.9 °F - 54.0 °F 93% 30.18 in 10.0 mi Calm Calm - N/A   Clear
4:53 AM 55.0 °F - 54.0 °F 96% 30.18 in 10.0 mi Calm Calm - N/A   Clear
5:53 AM 55.0 °F - 54.0 °F 96% 30.19 in 10.0 mi Calm Calm - N/A   Clear
6:53 AM 55.0 °F - 53.1 °F 93% 30.21 in 10.0 mi Calm Calm - N/A   Clear
7:10 AM 55.4 °F - 53.6 °F 94% 30.24 in 10.0 mi Calm Calm - N/A   Scattered Clouds
7:53 AM 57.0 °F - 55.0 °F 93% 30.22 in 10.0 mi Calm Calm - N/A   Clear
8:53 AM 63.0 °F - 57.0 °F 81% 30.23 in 10.0 mi Calm Calm - N/A   Clear
9:53 AM 66.9 °F - 55.9 °F 68% 30.22 in 10.0 mi Calm Calm - N/A   Clear
10:53 AM 72.0 °F - 55.0 °F 55% 30.19 in 10.0 mi Calm Calm - N/A   Clear
11:53 AM 77.0 °F - 55.9 °F 48% 30.17 in 10.0 mi Variable 4.6 mph - N/A   Clear
12:53 PM 79.0 °F - 55.9 °F 45% 30.16 in 10.0 mi West 6.9 mph - N/A   Clear
1:53 PM 81.0 °F 80.8 °F 55.9 °F 42% 30.15 in 10.0 mi Variable 5.8 mph - N/A   Clear
2:53 PM 82.9 °F 81.9 °F 54.0 °F 37% 30.13 in 10.0 mi Variable 5.8 mph - N/A   Partly Cloudy
3:53 PM 84.0 °F 82.6 °F 54.0 °F 35% 30.11 in 10.0 mi WSW 8.1 mph - N/A   Clear
4:53 PM 84.0 °F 82.5 °F 53.1 °F 34% 30.10 in 10.0 mi SSW 9.2 mph 17.3 mph N/A   Clear
5:53 PM 82.0 °F 81.2 °F 53.1 °F 37% 30.10 in 10.0 mi SW 6.9 mph - N/A   Clear
6:53 PM 82.0 °F 81.4 °F 55.0 °F 39% 30.08 in 10.0 mi Variable 3.5 mph - N/A   Clear
7:53 PM 80.1 °F 80.2 °F 55.9 °F 43% 30.08 in 10.0 mi SSW 6.9 mph - N/A   Clear
8:53 PM 77.0 °F - 55.9 °F 48% 30.09 in 10.0 mi SW 3.5 mph - N/A   Clear
9:53 PM 75.0 °F - 55.0 °F 50% 30.09 in 10.0 mi Calm Calm - N/A   Clear
10:53 PM 69.1 °F - 57.9 °F 68% 30.10 in 10.0 mi Calm Calm - N/A   Clear
11:53 PM 68.0 °F - 59.0 °F 73% 30.10 in 10.0 mi Calm Calm - N/A   Clear